• Join FlightAware (Why Join?)
  • Login
  • US Flag 
05:09AM EST


 

Airport Tracker/Info


-or-


 

Live Flight TrackerFlight Track Log ✈ CA7064 ✈ 27-May-2013 ✈ CYKA - CYYC

Flight Track Log - Related Links

Times and Time Zones

All times are in EDT time to prevent confusion due to time zone crossing. See the CA7064 flight status page for this flight to view local times or setup timezone preferences in your user account.

Time Position Orientation Groundspeed Altitude Reporting Facility
EDT Latitude Longitude Course Direction KTS MPH feet Rate Location/Type
06:32PM 50.6667 -120.3667 96° East 140 161 3,400  Level Vancouver Center
06:33PM 50.6667 -120.3000 90° East 140 161 5,200 2,000 Climbing Vancouver Center
06:34PM 50.6833 -120.2333 68° East 160 184 7,400 2,100 Climbing Vancouver Center
06:35PM 50.6833 -120.1667 90° East 170 196 9,400 1,950 Climbing Vancouver Center
06:36PM 50.6833 -120.0833 90° East 170 196 11,300 1,900 Climbing Vancouver Center
06:37PM 50.6786 -119.7728 96° East  Level FlightAware Approximate
06:37PM 50.6833 -120.0000 90° East 180 207 13,200  Level Vancouver Center
06:38PM 50.6833 -119.9167 90° East 180 207 14,700 1,240 Climbing Vancouver Center
06:39PM 50.6667 -119.8500 112° Southeast 190 219 15,700 1,000 Climbing Vancouver Center
06:40PM 50.6667 -119.7333 90° East 210 242 16,700 1,008 Climbing Vancouver Center
06:41PM 50.6667 -119.6333 90° East 220 253 17,700 1,000 Climbing Vancouver Center
06:42PM 50.6667 -119.5500 90° East 220 253 18,700 500 Climbing Vancouver Center
06:43PM 50.6333 -119.4500 118° Southeast 230 265 19,000 192 Climbing Edmonton Center
06:44PM 50.6500 -119.3500 75° East 260 299 19,100 50 Climbing Vancouver Center
06:45PM 50.6333 -119.2333 103° East 260 299 19,100  Level Edmonton Center
06:46PM 50.6500 -119.1167 77° East 260 299 19,100 -67 Level Vancouver Center
06:47PM 50.6333 -119.0000 103° East 260 299 19,000 -50 Descending Vancouver Center
06:48PM 50.6500 -118.8667 79° East 270 311 19,000  Level Vancouver Center
06:49PM 50.6333 -118.7667 105° East 270 311 19,000  Level Vancouver Center
06:49PM 50.6167 -118.7667 180° South 270 311 19,000 98 Level Edmonton Center
06:50PM 50.6333 -118.6333 79° East 270 311 19,100 100 Climbing Vancouver Center
06:50PM 50.6000 -118.6333 180° South 270 311 19,100  Level Edmonton Center
06:51PM 50.6333 -118.5333 62° Northeast 270 311 19,100  Level Vancouver Center
06:52PM 50.6333 -118.4000 90° East 270 311 19,100 -50 Level Vancouver Center
06:53PM 50.6333 -118.3000 90° East 270 311 19,000 -50 Descending Vancouver Center
06:54PM 50.6167 -118.1667 101° East 280 322 19,000  Level Vancouver Center
06:55PM 50.6167 -118.0667 90° East 280 322 19,000  Level Vancouver Center
06:55PM 50.6000 -118.0333 128° Southeast 280 322 19,000 -67 Level Edmonton Center
06:56PM 50.5833 -117.9333 105° East 280 322 18,900  Descending Edmonton Center
06:57PM 50.5667 -117.8167 103° East 270 311 19,000 50 Climbing Edmonton Center
06:58PM 50.5667 -117.6833 90° East 270 311 19,000  Level Edmonton Center
06:59PM 50.5833 -117.5667 77° East 270 311 19,000 67 Level Vancouver Center
07:00PM 50.5833 -117.4500 90° East 270 311 19,100  Climbing Vancouver Center
07:01PM 50.5833 -117.3333 90° East 270 311 19,000 -133 Descending Vancouver Center
07:01PM 50.5667 -117.3333 180° South 270 311 18,900  Descending Edmonton Center
07:02PM 50.5500 -117.2167 103° East 270 311 19,000 100 Climbing Edmonton Center
07:03PM 50.5500 -117.0833 90° East 270 311 19,100  Climbing Edmonton Center
07:04PM 50.5333 -116.9667 103° East 270 311 19,000 -67 Descending Edmonton Center
07:05PM 50.5500 -116.8500 77° East 270 311 19,000 67 Level Vancouver Center
07:06PM 50.5500 -116.7500 90° East 270 311 19,100  Climbing Vancouver Center
07:07PM 50.5333 -116.6167 101° East 270 311 19,000 -67 Descending Vancouver Center
07:07PM 50.5167 -116.6167 180° South 260 299 19,000 66 Level Edmonton Center
07:08PM 50.5167 -116.5000 90° East 260 299 19,100  Climbing Edmonton Center
07:09PM 50.5000 -116.4000 105° East 270 311 19,000 -50 Descending Edmonton Center
07:10PM 50.5000 -116.2667 90° East 270 311 19,000  Level Edmonton Center
07:11PM 50.5333 -116.1667 62° Northeast 270 311 19,000  Level Edmonton Center
07:12PM 50.5667 -116.0333 68° East 270 311 19,000 50 Level Edmonton Center
07:13PM 50.5833 -115.9333 75° East 270 311 19,100 50 Climbing Edmonton Center
07:14PM 50.6167 -115.8167 66° East 270 311 19,100 -250 Level Edmonton Center
07:15PM 50.6667 -115.7167 52° Northeast 270 311 18,600 -1,050 Descending Edmonton Center
07:16PM 50.6667 -115.5833 90° East 290 334 17,000 -1,200 Descending Edmonton Center
07:17PM 50.7000 -115.4500 68° East 300 345 16,200 -750 Descending Edmonton Center
07:18PM 50.7500 -115.3667 47° Northeast 290 334 15,500 -550 Descending Edmonton Center
07:19PM 50.7667 -115.2333 79° East 290 334 15,100 -400 Descending Edmonton Center
07:20PM 50.7833 -115.1333 75° East 270 311 14,700 -500 Descending Edmonton Center
07:21PM 50.8333 -115.0000 59° Northeast 280 322 14,100 -300 Descending Edmonton Center
07:22PM 50.8500 -114.9000 75° East 270 311 14,100  Level Edmonton Center
07:23PM 50.8833 -114.7667 68° East 270 311 14,100 -600 Level Edmonton Center
07:24PM 50.9167 -114.6667 62° Northeast 290 334 12,900 -1,300 Descending Edmonton Center
07:25PM 50.9833 -114.6000 32° Northeast 290 334 11,500 -1,550 Descending Edmonton Center
07:26PM 51.0500 -114.5167 38° Northeast 290 334 9,800 -1,850 Descending Edmonton Center
07:27PM 51.1000 -114.4167 51° Northeast 280 322 7,800 -1,600 Descending Edmonton Center
07:28PM 51.1667 -114.3500 32° Northeast 240 276 6,600 -700 Descending Edmonton Center
07:29PM 51.1667 -114.2667 90° East 210 242 6,400 -550 Descending Edmonton Center
07:30PM 51.1333 -114.1833 122° Southeast 190 219 5,500 -850 Descending Edmonton Center
07:31PM 51.1167 -114.1167 112° Southeast 150 173 4,700 -800 Descending Edmonton Center
07:32PM 51.1000 -114.0667 118° Southeast 120 138 3,900 -800 Descending Edmonton Center